Regional Weather Roundup
Issued by NWS

Home | Current Version | Previous Version | Graphics & Text | Print | Product List | Glossary On
Versions: 1 2 3 4 5 6 7 8 9 10 11 12 13 14 15 16 17 18 19 20 21 22 23 24 25 26 27 28 29 30 31 32 33 34 35 36 37 38 39 40 41 42 43 44 45 46 47 48 49 50
000
ASUS44 KMEG 200010
RWRTN
TENNESSEE HOURLY STATE WEATHER ROUNDUP
NATIONAL WEATHER SERVICE MEMPHIS TN
700 PM CDT SUN OCT 19 2014

TNZ002-004-019-021-049-052-054-088>092-200100-
WEST TENNESSEE

CITY           SKY/WX    TMP DP  RH WIND       PRES   REMARKS
MEMPHIS INTL   PTCLDY    63  45  51 NE5       30.10F
NWS MEMPHIS      N/A     56 N/A N/A MISG        N/A
JACKSON        PTCLDY    56  48  74 CALM      30.11S
DYERSBURG      PTCLDY    55  37  50 CALM      30.13R
UNION CITY     CLEAR     54  46  76 CALM      30.11S
PARIS          CLEAR     50  45  81 CALM      30.12S
HUNTINGDON     PTCLDY    52  46  79 CALM      30.12R
LEXINGTON      CLEAR     55  50  82 CALM      30.10F
SAVANNAH       CLEAR     55  52  88 CALM      30.11S
$$

TNZ008-025-027-028-033-062-065-066-200100-
NORTH MIDDLE TENNESSEE

CITY           SKY/WX    TMP DP  RH WIND       PRES   REMARKS
NASHVILLE      MOCLDY    57  47  69 CALM      30.12S
CLARKSVILLE    MOCLDY    53  44  71 SE5       30.11F
SMYRNA         MOCLDY    54  47  77 CALM      30.13S
COOKEVILLE     CLEAR     52  46  82 NE3       30.11S
CROSSVILLE     MOCLDY    55  44  66 NW5       30.12S HAZE
$$

TNZ061-075-076-078-094-096-097-200100-
SOUTH MIDDLE TENNESSEE

CITY           SKY/WX    TMP DP  RH WIND       PRES   REMARKS
FAYETTEVILLE   CLEAR     55  45  67 N18G38    30.11S
TULLAHOMA      CLEAR     54  46  76 CALM      30.12S
WINCHESTER     CLEAR     54  48  82 CALM      30.12R
MCMINNVILLE    CLEAR     54  50  87 CALM      30.12R
COLUMBIA       CLEAR     55  54  94 CALM      30.10S
SHELBYVILLE    CLEAR     54  48  82 CALM      30.12S
$$

TNZ017-018-042-046-047-200100-
NORTHEAST TENNESSEE

CITY           SKY/WX    TMP DP  RH WIND       PRES   REMARKS
TRI CITIES     PTCLDY    48  41  76 CALM      30.13R
ELIZABETHTON   CLEAR     45  39  81 CALM      30.14R
$$

TNZ012-013-036-069-073-074-200100-
CENTRAL EAST TENNESSEE

CITY           SKY/WX    TMP DP  RH WIND       PRES   REMARKS
KNOXVILLE      PTCLDY    57  43  59 NE3       30.10R
OAK RIDGE      PTCLDY    53  47  79 CALM      30.12S
GATLINBURG     CLEAR     52  45  76 CALM      30.11S
MORRISTOWN     CLEAR     52  45  76 CALM      30.13R
$$

TNZ083-085-099-200100-
SOUTHEAST TENNESSEE

CITY           SKY/WX    TMP DP  RH WIND       PRES   REMARKS
CHATTANOOGA    MOCLDY    58  49  72 CALM      30.10S
$$

SKY/WX REPORTED AS FAIR MEANS FEW OR NO CLOUDS BELOW
12 THOUSAND FEET.




USA.gov is the U.S. government's official web portal to all federal, state and local government web resources and services.